CZ-6A DEB, 55547

Orbit data source: Space-Track

CZ-6A DEB, 55547 is space debris in SSO originally from a launch on Fri, 11 Nov 2022 UTC launched from the Taiyaun Space Center, China (TSC). Debris objects in space refer to the collection of defunct objects orbiting the Earth. Examples of debris include non-operational satellites, rocket bodies, and fragments generated from explosions, collisions, or faulty payload assembly.

Loading next visibility...
Identifier
55547, 2022-151YV
Orbit
SSO
Country
Flag of CNCN / PRC
Related business
Manufacturer
SAST
Mission
Spacecraft
Bus & Motor
Unknown
Mass
Unknown
Launch date (UTC)
2022-11-11 (4 years ago)
Launch vehicle
Unknown
Launch site
Taiyaun Space Center, China (TSC)
Object type
Payload
Rocket body
Debris
Shape & HBR
Unknown shape, 0.1 m
Radar Cross Section
Medium (>0.1 m² and <1 m²)

Expand to show TLE details & history
Last TLE update: 2 days ago

TLE from 2 days ago
0 CZ-6A DEB
1 55547U 22151YV  26171.25012556  .00003263  00000-0  17330-2 0  9990
2 55547  98.9078 165.8669 0092772  20.0700 340.4081 14.12050169179192
Epoch: 2026-06-20T06:00Z
TLE epoch observation values (Epoch: 2026-06-20T06:00:10.848Z)
Latitude
-0.00008°
Longitude
167.35427°
Altitude
792.125 km
Speed
7.49 km/s
True Right ascension
11h 03m 28s
True Declination
0° 00' 00"
Sunlit
Object was in daylight at epoch
Visualization orbit readout
Latitude
Unknown
Longitude
Unknown
Altitude
Unknown
Speed
Unknown
Apparent Right ascension
Unknown
Apparent Declination
Unknown
Sunlit
N/A
Visualization observer readout
Local Sidereal Time
21:29:12
Azimuth
Unknown
Elevation
Unknown
Doppler factor
Unknown
Orbital elements
Apogee altitude
916.596 km
Perigee altitude
782.49 km
Semi-major axis
7,227.68 km
Eccentricity
0.00928
Inclination
98.9078°
RAAN
165.8669°
Arg. of periapsis
20.07°
True anomaly
340.04769°
Mean anomaly
340.4081°
Eccentric anomaly
340.22829°
Mean motion
3.5322 °/min
Orbital period
101.92 mins
BSTAR
0.001733
Loading maneuver chart data...
Computing Atmospheric mass density...
Loading historical data...
Loading historical data...
Loading historical data...
Loading historical data...
Loading historical data...
Loading historical data...
Loading historical data...

Documentation

Showing up to 5 results
|